Nantucket, Massachusetts, United States (02554)
Lat: 41.28N, Lon: 70.1W
Wx Zone: MAZ024
Local Info
Past Weather Observations for Today

NOTE: This archive is for the closest National Weather Service station to Nantucket. Information may differ from the station used for current weather conditions.

Click here for Long-term Archive

Time Weather Temperature Dewpoint Humidity Pressure Winds Precip Visibility
10:53
Overcast
75°F / 24°C 68°F / 20°C 78% 29.8 in
(1009 mb)
N 6.9 mph
(N 11 kph)
- 10SM
10:22
Overcast
75°F / 24°C 68°F / 20°C 78% 29.8 in
(1009 mb)
NNW 5.8 mph
(NNW 9 kph)
- 10SM
10:04
Overcast
75°F / 24°C 70°F / 21°C 83% 29.8 in
(1009 mb)
NNW 8.1 mph
(NNW 13 kph)
- 10SM
09:53
Overcast
75°F / 24°C 70°F / 21°C 83% 29.8 in
(1009 mb)
NNW 8.1 mph
(NNW 13 kph)
- 10SM
08:53
Mostly Cloudy
72°F / 22°C 68°F / 20°C 88% 29.8 in
(1009 mb)
SSW 4.6 mph
(SSW 7 kph)
- 10SM
08:46
Mostly Cloudy
72°F / 22°C 66°F / 19°C 83% 29.8 in
(1009 mb)
SW 6.9 mph
(SW 11 kph)
- 10SM
07:53
Partly Cloudy
72°F / 22°C 68°F / 20°C 88% 29.77 in
(1008 mb)
SW 5.8 mph
(SW 9 kph)
- 10SM
07:09
Partly Cloudy
72°F / 22°C 70°F / 21°C 94% 29.77 in
(1008 mb)
Calm - 10SM
06:53
Mostly Cloudy
Fog And Mist
70°F / 21°C 70°F / 21°C 100% 29.77 in
(1008 mb)
SSW 3.5 mph
(SSW 6 kph)
- 5SM
06:40
Mostly Cloudy
Fog And Mist
70°F / 21°C 70°F / 21°C 100% 29.77 in
(1008 mb)
SSW 4.6 mph
(SSW 7 kph)
- 5SM
06:08
Obscured
Fog And Mist
70°F / 21°C 70°F / 21°C 100% 29.77 in
(1008 mb)
SSW 4.6 mph
(SSW 7 kph)
- 1SM
05:53
Obscured
Fog And Mist
70°F / 21°C 68°F / 20°C 94% 29.77 in
(1008 mb)
SSW 4.6 mph
(SSW 7 kph)
- 3/4SM
05:34
Obscured
Fog
68°F / 20°C 66°F / 19°C 94% 29.77 in
(1008 mb)
SW 6.9 mph
(SW 11 kph)
- 1/2SM
04:53
Obscured
Fog
68°F / 20°C 68°F / 20°C 100% 29.77 in
(1008 mb)
SSW 9.2 mph
(SSW 15 kph)
- 1/4SM
04:46
Obscured
Fog
68°F / 20°C 68°F / 20°C 100% 29.77 in
(1008 mb)
SSW 9.2 mph
(SSW 15 kph)
- 1/4SM
04:44
Obscured
Fog
70°F / 21°C 68°F / 20°C 94% 29.77 in
(1008 mb)
SSW 9.2 mph
(SSW 15 kph)
- 1/4SM
04:35
Obscured
Fog
68°F / 20°C 68°F / 20°C 100% 29.77 in
(1008 mb)
SSW 9.2 mph
(SSW 15 kph)
- 1/4SM
04:20
Overcast
Fog And Mist
68°F / 20°C 68°F / 20°C 100% 29.77 in
(1008 mb)
SSW 9.2 mph
(SSW 15 kph)
- 1 3/4SM
04:09
Overcast
Fog And Mist
70°F / 21°C 68°F / 20°C 94% 29.77 in
(1008 mb)
SW 10.4 mph
(SW 17 kph)
- 3SM
03:53
Obscured
Fog And Mist
68°F / 20°C 68°F / 20°C 100% 29.77 in
(1008 mb)
SW 9.2 mph
(SW 15 kph)
- 1SM
03:01
Obscured
Fog
66°F / 19°C 66°F / 19°C 100% 29.77 in
(1008 mb)
SW 6.9 mph
(SW 11 kph)
- 1/2SM
02:53
Obscured
Fog
66°F / 19°C 66°F / 19°C 100% 29.77 in
(1008 mb)
S 4.6 mph
(S 7 kph)
- 1/4SM
02:33
Obscured
Fog
68°F / 20°C 66°F / 19°C 94% 29.77 in
(1008 mb)
SSE 5.8 mph
(SSE 9 kph)
- 1/2SM
02:24
Obscured
Fog
68°F / 20°C 66°F / 19°C 94% 29.77 in
(1008 mb)
SW 5.8 mph
(SW 9 kph)
- 1/2SM
02:16
Obscured
Fog
68°F / 20°C 66°F / 19°C 94% 29.77 in
(1008 mb)
SW 6.9 mph
(SW 11 kph)
- 1/4SM
02:08
Obscured
Fog
68°F / 20°C 66°F / 19°C 94% 29.77 in
(1008 mb)
SW 9.2 mph
(SW 15 kph)
- 1/4SM
01:53
Obscured
Fog
66°F / 19°C 66°F / 19°C 100% 29.77 in
(1008 mb)
SW 9.2 mph
(SW 15 kph)
- 1/4SM
01:46
Obscured
Fog
66°F / 19°C 66°F / 19°C 100% 29.77 in
(1008 mb)
SSE 9.2 mph
(SSE 15 kph)
- 1/4SM
00:53
Obscured
Fog
68°F / 20°C 66°F / 19°C 94% 29.77 in
(1008 mb)
SSE 8.1 mph
(SSE 13 kph)
- 1/2SM
Time Weather Temperature Dewpoint Humidity Pressure Winds Precip Visibility


Weather for websites

WeatherForYou.com, LLC is not responsible for any damages or problems caused by this service. Current weather conditions are obtained from the closest station including government and personal stations which may have varying degrees of accuracy. Weather forecasts are derived from the NOAA NDFD. Like all things, this site belongs to Jesus Christ... He just trusts me to maintain it. If you have any questions or comments email webmaster@weatherforyou.com

Copyright © 2014, WeatherForYou.com LLC. All rights reserved.